User: anonymous   Login
Location: Lac de la Montange Noire
(46.1952°N, 74.2701°W)
Time: 02:51:16
(UTC-05:00)
Language:

Iridium 42 - Orbit

View from above orbital plane
View from above orbital plane
View from above satellite
View from above satellite

Ground track
Ground track

The orbit data is extracted from the following two-line orbital elements,

1 25077U 97077A   14355.53083392  .00000374  00000-0  12643-3 0   839
2 25077 086.3957 041.8035 0002185 104.3357 255.8081 14.34299208891932
Epoch (UTC): 21 December 2014 12:44:24
Eccentricity: 0.0002185
inclination: 86.3957°
perigee height: 776 km
apogee height: 779 km
right ascension of ascending node: 41.8035°
argument of perigee: 104.3357°
revolutions per day: 14.34299208
mean anomaly at epoch: 255.8081°
orbit number at epoch: 89193

The dashed part of the orbit path shows where the satellite is in the earth's shadow,  

DLR